| time (UTC) | temp C | wind direction | speed KPH | gust KPH | rain 1hr cm | rain 24hr cm | rain mn cm | humidity % | barometer mb |
| 20260906205505 | 33 | 261 | 3.2 | 6.4 | 0.00 | 0.10 | 0.10 | 61 | 1012.8 |
| 20260906205010 | 33 | 302 | 3.2 | 6.4 | 0.00 | 0.10 | 0.10 | 59 | 1012.8 |
| 20260906204511 | 33 | 195 | 1.6 | 8.0 | 0.00 | 0.10 | 0.10 | 62 | 1012.7 |
| 20260906204003 | 33 | 325 | 1.6 | 8.0 | 0.00 | 0.10 | 0.10 | 60 | 1012.7 |
| 20260906203504 | 32 | 296 | 3.2 | 8.0 | 0.00 | 0.10 | 0.10 | 61 | 1012.7 |
| 20260906203008 | 32 | 14 | 1.6 | 4.8 | 0.00 | 0.10 | 0.10 | 61 | 1012.8 |
| 20260906202504 | 32 | 352 | 1.6 | 8.0 | 0.00 | 0.10 | 0.10 | 59 | 1012.9 |
| 20260906202004 | 32 | 269 | 3.2 | 8.0 | 0.00 | 0.10 | 0.10 | 61 | 1013.2 |
| 20260906201504 | 32 | 198 | 1.6 | 4.8 | 0.00 | 0.10 | 0.10 | 60 | 1013.4 |
| 20260906201002 | 32 | 342 | 0.0 | 4.8 | 0.00 | 0.10 | 0.10 | 63 | 1013.6 |
| 20260906200502 | 32 | 182 | 0.0 | 4.8 | 0.00 | 0.10 | 0.10 | 63 | 1013.7 |
| 20260906200005 | 31 | 176 | 1.6 | 6.4 | 0.00 | 0.10 | 0.10 | 65 | 1014.0 |
| 20260906195507 | 31 | 278 | 0.0 | 6.4 | 0.00 | 0.10 | 0.10 | 65 | 1014.4 |
| 20260906195011 | 31 | 164 | 1.6 | 4.8 | 0.00 | 0.10 | 0.10 | 67 | 1014.5 |
| 20260906194504 | 31 | 204 | 0.0 | 3.2 | 0.00 | 0.10 | 0.10 | 66 | 1014.6 |
| 20260906194009 | 31 | 211 | 0.0 | 3.2 | 0.00 | 0.10 | 0.10 | 67 | 1014.7 |
| 20260906193506 | 31 | 149 | 0.0 | 3.2 | 0.00 | 0.10 | 0.10 | 65 | 1014.7 |
| 20260906193004 | 31 | 238 | 0.0 | 3.2 | 0.00 | 0.10 | 0.10 | 65 | 1014.7 |
| 20260906192506 | 31 | 277 | 0.0 | 4.8 | 0.00 | 0.10 | 0.10 | 65 | 1014.7 |
| 20260906192003 | 31 | 209 | 1.6 | 4.8 | 0.00 | 0.10 | 0.10 | 64 | 1014.8 |
| 20260906191527 | 31 | 189 | 0.0 | 4.8 | 0.00 | 0.10 | 0.10 | 64 | 1014.8 |
| 20260906191006 | 32 | 209 | 0.0 | 8.0 | 0.00 | 0.10 | 0.10 | 62 | 1014.9 |
| 20260906190502 | 32 | 292 | 1.6 | 8.0 | 0.00 | 0.10 | 0.10 | 62 | 1014.9 |
| 20260906190005 | 32 | 228 | 1.6 | 6.4 | 0.00 | 0.10 | 0.10 | 63 | 1014.9 |
| 20260906185505 | 32 | 239 | 1.6 | 11.3 | 0.00 | 0.10 | 0.10 | 65 | 1014.9 |
| 20260906185007 | 32 | 238 | 1.6 | 11.3 | 0.00 | 0.10 | 0.10 | 62 | 1014.9 |
| 20260906184510 | 32 | 110 | 1.6 | 6.4 | 0.00 | 0.10 | 0.10 | 66 | 1015.0 |
| 20260906184008 | 31 | 82 | 3.2 | 11.3 | 0.00 | 0.10 | 0.10 | 65 | 1015.1 |
| 20260906183505 | 31 | 144 | 4.8 | 11.3 | 0.00 | 0.10 | 0.10 | 66 | 1015.1 |
| 20260906183016 | 31 | 244 | 1.6 | 6.4 | 0.00 | 0.10 | 0.10 | 65 | 1015.3 |
| 20260906182510 | 31 | 343 | 0.0 | 4.8 | 0.00 | 0.10 | 0.10 | 69 | 1015.4 |
| 20260906182013 | 31 | 133 | 1.6 | 4.8 | 0.00 | 0.10 | 0.10 | 67 | 1015.4 |
| 20260906181508 | 31 | 205 | 1.6 | 4.8 | 0.00 | 0.10 | 0.10 | 66 | 1015.4 |
| 20260906181010 | 31 | 65 | 1.6 | 6.4 | 0.00 | 0.10 | 0.10 | 66 | 1015.4 |
| 20260906180513 | 30 | 184 | 1.6 | 6.4 | 0.00 | 0.10 | 0.10 | 68 | 1015.4 |
| 20260906180004 | 30 | 196 | 1.6 | 6.4 | 0.00 | 0.10 | 0.10 | 66 | 1015.4 |
| 20260906175507 | 30 | 279 | 1.6 | 6.4 | 0.00 | 0.10 | 0.10 | 67 | 1015.4 |
| 20260906175005 | 30 | 229 | 3.2 | 6.4 | 0.00 | 0.10 | 0.10 | 69 | 1015.5 |
| 20260906174509 | 30 | 199 | 1.6 | 6.4 | 0.00 | 0.10 | 0.10 | 71 | 1015.5 |
| 20260906174003 | 29 | 216 | 3.2 | 4.8 | 0.00 | 0.10 | 0.10 | 71 | 1015.6 |
| 20260906173508 | 28 | 163 | 3.2 | 6.4 | 0.00 | 0.10 | 0.10 | 73 | 1015.8 |
| 20260906173014 | 29 | 246 | 3.2 | 8.0 | 0.00 | 0.10 | 0.10 | 72 | 1015.7 |
| 20260906172502 | 29 | 59 | 1.6 | 8.0 | 0.00 | 0.10 | 0.10 | 74 | 1015.7 |
| 20260906172005 | 28 | 166 | 1.6 | 8.0 | 0.00 | 0.10 | 0.10 | 77 | 1015.8 |
| 20260906171520 | 28 | 196 | 3.2 | 8.0 | 0.00 | 0.10 | 0.10 | 76 | 1016.0 |
| 20260906171009 | 28 | 226 | 1.6 | 8.0 | 0.00 | 0.10 | 0.10 | 78 | 1016.2 |
| 20260906170506 | 28 | 246 | 0.0 | 8.0 | 0.00 | 0.10 | 0.10 | 79 | 1016.1 |
| 20260906170016 | 28 | 214 | 1.6 | 3.2 | 0.00 | 0.10 | 0.10 | 82 | 1016.1 |
| 20260906165509 | 27 | 205 | 1.6 | 3.2 | 0.00 | 0.10 | 0.10 | 81 | 1016.2 |
| 20260906165016 | 27 | 165 | 0.0 | 3.2 | 0.00 | 0.10 | 0.10 | 82 | 1016.3 |
| 20260906164511 | 27 | 82 | 0.0 | 4.8 | 0.00 | 0.10 | 0.10 | 86 | 1016.3 |
| 20260906164006 | 27 | 82 | 3.2 | 4.8 | 0.00 | 0.10 | 0.10 | 85 | 1016.3 |
| 20260906163506 | 26 | 186 | 0.0 | 3.2 | 0.03 | 0.10 | 0.10 | 87 | 1016.5 |
| 20260906163010 | 26 | 198 | 0.0 | 3.2 | 0.03 | 0.10 | 0.10 | 91 | 1016.4 |
| 20260906162508 | 25 | 201 | 1.6 | 1.6 | 0.03 | 0.10 | 0.10 | 89 | 1016.7 |
| 20260906162009 | 25 | 200 | 0.0 | 1.6 | 0.05 | 0.10 | 0.10 | 90 | 1016.6 |
| 20260906161517 | 25 | 207 | 0.0 | 1.6 | 0.10 | 0.10 | 0.10 | 90 | 1016.5 |
| 20260906161011 | 24 | 221 | 0.0 | 3.2 | 0.10 | 0.10 | 0.10 | 88 | 1016.7 |
| 20260906160511 | 24 | 221 | 0.0 | 3.2 | 0.10 | 0.10 | 0.10 | 90 | 1016.7 |
| 20260906160024 | 24 | 221 | 0.0 | 1.6 | 0.10 | 0.10 | 0.10 | 89 | 1016.7 |
| 20260906155505 | 24 | 221 | 0.0 | 1.6 | 0.10 | 0.10 | 0.10 | 89 | 1016.8 |
| 20260906155012 | 24 | 202 | 0.0 | 1.6 | 0.10 | 0.10 | 0.10 | 91 | 1016.7 |
| 20260906154526 | 23 | 202 | 0.0 | 3.2 | 0.10 | 0.10 | 0.10 | 90 | 1016.7 |
| 20260906154012 | 23 | 202 | 0.0 | 3.2 | 0.10 | 0.10 | 0.10 | 89 | 1016.7 |
| 20260906153508 | 23 | 128 | 0.0 | 3.2 | 0.08 | 0.08 | 0.08 | 88 | 1016.6 |
| 20260906153010 | 23 | 128 | 0.0 | 3.2 | 0.08 | 0.08 | 0.08 | 85 | 1016.5 |
| 20260906152510 | 24 | 128 | 0.0 | 12.9 | 0.08 | 0.08 | 0.08 | 81 | 1016.5 |
| 20260906152007 | 25 | 101 | 3.2 | 12.9 | 0.05 | 0.05 | 0.05 | 80 | 1016.7 |
| 20260906151514 | 26 | 298 | 3.2 | 9.7 | 0.00 | 0.00 | 0.00 | 81 | 1016.9 |
| 20260906151011 | 26 | 159 | 1.6 | 9.7 | 0.00 | 0.00 | 0.00 | 80 | 1017.0 |
| 20260906150511 | 26 | 300 | 1.6 | 9.7 | 0.00 | 0.00 | 0.00 | 80 | 1016.7 |
| 20260906150022 | 27 | 212 | 0.0 | 9.7 | 0.00 | 0.00 | 0.00 | 79 | 1016.3 |
| 20260906145506 | 27 | 252 | 3.2 | 9.7 | 0.00 | 0.00 | 0.00 | 79 | 1016.2 |
| 20260906145015 | 27 | 236 | 1.6 | 9.7 | 0.00 | 0.00 | 0.00 | 79 | 1016.0 |
| 20260906144511 | 27 | 74 | 3.2 | 8.0 | 0.00 | 0.00 | 0.00 | 79 | 1016.0 |
| 20260906144015 | 27 | 92 | 1.6 | 6.4 | 0.00 | 0.00 | 0.00 | 79 | 1015.9 |
| 20260906143516 | 26 | 63 | 1.6 | 8.0 | 0.00 | 0.00 | 0.00 | 79 | 1015.9 |
| 20260906143026 | 26 | 181 | 0.0 | 8.0 | 0.00 | 0.00 | 0.00 | 80 | 1015.9 |
| 20260906142509 | 26 | 51 | 0.0 | 11.3 | 0.00 | 0.00 | 0.00 | 80 | 1016.0 |
| 20260906142015 | 26 | 121 | 3.2 | 11.3 | 0.00 | 0.00 | 0.00 | 80 | 1016.0 |
| 20260906141511 | 26 | 267 | 1.6 | 9.7 | 0.00 | 0.00 | 0.00 | 80 | 1016.0 |
| 20260906141008 | 26 | 271 | 1.6 | 6.4 | 0.00 | 0.00 | 0.00 | 80 | 1016.1 |
| 20260906140512 | 26 | 215 | 1.6 | 4.8 | 0.00 | 0.00 | 0.00 | 81 | 1016.1 |
| 20260906140027 | 26 | 98 | 1.6 | 11.3 | 0.00 | 0.00 | 0.00 | 81 | 1016.0 |
| 20260906135515 | 26 | 96 | 1.6 | 11.3 | 0.00 | 0.00 | 0.00 | 80 | 1016.1 |
| 20260906135010 | 26 | 198 | 1.6 | 4.8 | 0.00 | 0.00 | 0.00 | 81 | 1016.2 |
| 20260906134523 | 26 | 69 | 0.0 | 4.8 | 0.00 | 0.00 | 0.00 | 81 | 1016.1 |
| 20260906134016 | 26 | 142 | 1.6 | 6.4 | 0.00 | 0.00 | 0.00 | 81 | 1016.2 |
| 20260906133509 | 26 | 72 | 4.8 | 9.7 | 0.00 | 0.00 | 0.00 | 80 | 1016.1 |
| 20260906133017 | 26 | 114 | 3.2 | 9.7 | 0.00 | 0.00 | 0.00 | 80 | 1016.1 |
| 20260906132517 | 26 | 112 | 1.6 | 6.4 | 0.00 | 0.00 | 0.00 | 80 | 1016.0 |
| 20260906132019 | 26 | 178 | 1.6 | 9.7 | 0.00 | 0.00 | 0.00 | 80 | 1016.0 |
| 20260906131540 | 26 | 47 | 3.2 | 11.3 | 0.00 | 0.00 | 0.00 | 80 | 1016.0 |
| 20260906131015 | 26 | 98 | 4.8 | 11.3 | 0.00 | 0.00 | 0.00 | 80 | 1015.9 |
| 20260906130509 | 26 | 111 | 3.2 | 9.7 | 0.00 | 0.00 | 0.00 | 81 | 1016.0 |
| 20260906130026 | 26 | 103 | 4.8 | 9.7 | 0.00 | 0.00 | 0.00 | 81 | 1016.0 |
| 20260906125510 | 25 | 96 | 0.0 | 3.2 | 0.00 | 0.00 | 0.00 | 82 | 1016.0 |
| 20260906125010 | 25 | 92 | 0.0 | 4.8 | 0.00 | 0.00 | 0.00 | 83 | 1015.9 |
| 20260906124520 | 25 | 92 | 0.0 | 4.8 | 0.00 | 0.00 | 0.00 | 83 | 1015.9 |
| 20260906124008 | 25 | 64 | 0.0 | 3.2 | 0.00 | 0.00 | 0.00 | 83 | 1015.9 |
| 20260906123514 | 25 | 76 | 0.0 | 3.2 | 0.00 | 0.00 | 0.00 | 83 | 1015.8 |
| 20260906123020 | 25 | 76 | 0.0 | 3.2 | 0.00 | 0.00 | 0.00 | 83 | 1015.7 |
| 20260906122517 | 25 | 98 | 0.0 | 3.2 | 0.00 | 0.00 | 0.00 | 83 | 1015.6 |
| 20260906122012 | 25 | 98 | 0.0 | 3.2 | 0.00 | 0.00 | 0.00 | 83 | 1015.5 |
| 20260906121517 | 25 | 98 | 0.0 | 4.8 | 0.00 | 0.00 | 0.00 | 83 | 1015.5 |
| 20260906121017 | 25 | 96 | 1.6 | 4.8 | 0.00 | 0.00 | 0.00 | 83 | 1015.5 |
| 20260906120514 | 25 | 132 | 0.0 | 4.8 | 0.00 | 0.00 | 0.00 | 84 | 1015.4 |
| 20260906120018 | 25 | 212 | 1.6 | 4.8 | 0.00 | 0.00 | 0.00 | 84 | 1015.5 |
| 20260906115515 | 25 | 256 | 0.0 | 3.2 | 0.00 | 0.00 | 0.00 | 84 | 1015.3 |
| 20260906115008 | 25 | 256 | 0.0 | 6.4 | 0.00 | 0.00 | 0.00 | 84 | 1015.2 |
| 20260906114510 | 25 | 111 | 0.0 | 6.4 | 0.00 | 0.00 | 0.00 | 83 | 1015.2 |
| 20260906114003 | 25 | 90 | 0.0 | 6.4 | 0.00 | 0.00 | 0.00 | 83 | 1015.1 |
| 20260906113503 | 25 | 97 | 0.0 | 6.4 | 0.00 | 0.00 | 0.00 | 83 | 1015.1 |
| 20260906113004 | 25 | 103 | 1.6 | 3.2 | 0.00 | 0.00 | 0.00 | 83 | 1014.9 |
| 20260906112504 | 25 | 117 | 0.0 | 3.2 | 0.00 | 0.00 | 0.00 | 83 | 1015.0 |
| 20260906112004 | 25 | 118 | 0.0 | 3.2 | 0.00 | 0.00 | 0.00 | 83 | 1015.0 |
| 20260906111506 | 25 | 121 | 0.0 | 3.2 | 0.00 | 0.00 | 0.00 | 83 | 1015.0 |
| 20260906111005 | 25 | 159 | 0.0 | 1.6 | 0.00 | 0.00 | 0.00 | 83 | 1015.2 |
| 20260906110502 | 25 | 192 | 0.0 | 3.2 | 0.00 | 0.00 | 0.00 | 83 | 1015.3 |
| 20260906110004 | 25 | 192 | 0.0 | 3.2 | 0.00 | 0.00 | 0.00 | 83 | 1015.2 |
| 20260906105507 | 25 | 192 | 0.0 | 0.0 | 0.00 | 0.00 | 0.00 | 83 | 1015.2 |
| 20260906105007 | 25 | 192 | 0.0 | 3.2 | 0.00 | 0.00 | 0.00 | 83 | 1015.1 |
| 20260906104504 | 25 | 192 | 0.0 | 3.2 | 0.00 | 0.00 | 0.00 | 83 | 1015.0 |
| 20260906104006 | 25 | 98 | 0.0 | 3.2 | 0.00 | 0.00 | 0.00 | 82 | 1014.9 |
| 20260906103503 | 25 | 98 | 0.0 | 3.2 | 0.00 | 0.00 | 0.00 | 82 | 1014.9 |
| 20260906103004 | 25 | 98 | 0.0 | 3.2 | 0.00 | 0.00 | 0.00 | 82 | 1014.9 |
| 20260906102504 | 25 | 96 | 0.0 | 3.2 | 0.00 | 0.00 | 0.00 | 82 | 1014.7 |
| 20260906102004 | 25 | 96 | 0.0 | 3.2 | 0.00 | 0.00 | 0.00 | 82 | 1014.7 |
| 20260906101504 | 25 | 96 | 0.0 | 3.2 | 0.00 | 0.00 | 0.00 | 82 | 1014.7 |
| 20260906101005 | 25 | 96 | 0.0 | 1.6 | 0.00 | 0.00 | 0.00 | 82 | 1014.7 |
| 20260906100505 | 25 | 96 | 0.0 | 0.0 | 0.00 | 0.00 | 0.00 | 82 | 1014.7 |
| 20260906100010 | 25 | 96 | 0.0 | 0.0 | 0.00 | 0.00 | 0.00 | 82 | 1014.7 |
| 20260906095503 | 25 | 96 | 0.0 | 1.6 | 0.00 | 0.00 | 0.00 | 82 | 1014.7 |
| 20260906095004 | 25 | 96 | 0.0 | 3.2 | 0.00 | 0.00 | 0.00 | 82 | 1014.7 |
| 20260906094533 | 25 | 96 | 0.0 | 3.2 | 0.00 | 0.00 | 0.00 | 82 | 1014.6 |
| 20260906094004 | 25 | 96 | 0.0 | 3.2 | 0.00 | 0.00 | 0.00 | 82 | 1014.7 |
| 20260906093504 | 25 | 96 | 0.0 | 3.2 | 0.00 | 0.00 | 0.00 | 82 | 1014.7 |
| 20260906093008 | 25 | 130 | 0.0 | 3.2 | 0.00 | 0.00 | 0.00 | 82 | 1014.6 |
| 20260906092513 | 25 | 226 | 0.0 | 3.2 | 0.00 | 0.00 | 0.00 | 82 | 1014.7 |
| 20260906092012 | 25 | 225 | 0.0 | 3.2 | 0.00 | 0.00 | 0.00 | 82 | 1014.7 |
| 20260906091509 | 25 | 226 | 0.0 | 3.2 | 0.00 | 0.00 | 0.00 | 82 | 1014.7 |
| 20260906091004 | 25 | 226 | 0.0 | 3.2 | 0.00 | 0.00 | 0.00 | 82 | 1014.7 |
| 20260906090503 | 25 | 225 | 0.0 | 3.2 | 0.00 | 0.00 | 0.00 | 82 | 1014.8 |
| 20260906090007 | 25 | 225 | 0.0 | 3.2 | 0.00 | 0.00 | 0.00 | 81 | 1014.8 |
| 20260906085504 | 25 | 225 | 0.0 | 3.2 | 0.00 | 0.00 | 0.00 | 81 | 1014.8 |
| 20260906085007 | 25 | 213 | 0.0 | 3.2 | 0.00 | 0.00 | 0.00 | 81 | 1014.8 |
| 20260906084513 | 25 | 121 | 0.0 | 3.2 | 0.00 | 0.00 | 0.00 | 81 | 1014.8 |
| 20260906084007 | 25 | 121 | 0.0 | 3.2 | 0.00 | 0.00 | 0.00 | 81 | 1014.7 |
| 20260906083504 | 25 | 121 | 0.0 | 3.2 | 0.00 | 0.00 | 0.00 | 81 | 1014.7 |
| 20260906083018 | 25 | 121 | 0.0 | 3.2 | 0.00 | 0.00 | 0.00 | 80 | 1014.7 |
| 20260906082505 | 25 | 128 | 0.0 | 3.2 | 0.00 | 0.00 | 0.00 | 80 | 1014.6 |
| 20260906082005 | 25 | 128 | 0.0 | 3.2 | 0.00 | 0.00 | 0.00 | 80 | 1014.6 |
| 20260906081520 | 25 | 136 | 0.0 | 4.8 | 0.00 | 0.00 | 0.00 | 80 | 1014.5 |
| 20260906081007 | 26 | 136 | 0.0 | 4.8 | 0.00 | 0.00 | 0.00 | 80 | 1014.6 |
| 20260906080507 | 26 | 91 | 0.0 | 3.2 | 0.00 | 0.00 | 0.00 | 79 | 1014.6 |
| 20260906080028 | 25 | 190 | 1.6 | 4.8 | 0.00 | 0.00 | 0.00 | 80 | 1014.6 |
| 20260906075507 | 26 | 232 | 0.0 | 4.8 | 0.00 | 0.00 | 0.00 | 80 | 1014.6 |
| 20260906075003 | 26 | 209 | 0.0 | 3.2 | 0.00 | 0.00 | 0.00 | 79 | 1014.4 |
| 20260906074512 | 26 | 151 | 0.0 | 4.8 | 0.00 | 0.00 | 0.00 | 79 | 1014.4 |
| 20260906074005 | 26 | 82 | 0.0 | 4.8 | 0.00 | 0.00 | 0.00 | 79 | 1014.4 |
| 20260906073507 | 26 | 86 | 0.0 | 3.2 | 0.00 | 0.00 | 0.00 | 79 | 1014.4 |
| 20260906073008 | 26 | 60 | 0.0 | 4.8 | 0.00 | 0.00 | 0.00 | 79 | 1014.4 |
| 20260906072512 | 26 | 60 | 0.0 | 4.8 | 0.00 | 0.00 | 0.00 | 79 | 1014.4 |
| 20260906072014 | 26 | 240 | 0.0 | 4.8 | 0.00 | 0.00 | 0.00 | 79 | 1014.4 |
| 20260906071511 | 26 | 240 | 0.0 | 4.8 | 0.00 | 0.00 | 0.00 | 79 | 1014.4 |
| 20260906071009 | 26 | 245 | 0.0 | 3.2 | 0.00 | 0.00 | 0.00 | 79 | 1014.6 |
| 20260906070511 | 26 | 178 | 0.0 | 3.2 | 0.00 | 0.00 | 0.00 | 79 | 1014.6 |
| 20260906070007 | 26 | 144 | 0.0 | 3.2 | 0.00 | 0.00 | 0.00 | 78 | 1014.6 |
| 20260906065510 | 26 | 200 | 0.0 | 3.2 | 0.00 | 0.00 | 0.00 | 78 | 1014.7 |
| 20260906065011 | 26 | 200 | 0.0 | 3.2 | 0.00 | 0.00 | 0.00 | 77 | 1014.7 |
| 20260906064523 | 26 | 197 | 0.0 | 3.2 | 0.00 | 0.00 | 0.00 | 77 | 1014.7 |
| 20260906064006 | 26 | 214 | 0.0 | 4.8 | 0.00 | 0.00 | 0.00 | 77 | 1014.8 |
| 20260906063507 | 26 | 107 | 0.0 | 4.8 | 0.00 | 0.00 | 0.00 | 77 | 1014.8 |
| 20260906063012 | 26 | 200 | 0.0 | 3.2 | 0.00 | 0.00 | 0.00 | 77 | 1014.9 |
| 20260906062510 | 26 | 200 | 0.0 | 3.2 | 0.00 | 0.00 | 0.00 | 77 | 1014.9 |
| 20260906062006 | 26 | 240 | 0.0 | 3.2 | 0.00 | 0.00 | 0.00 | 77 | 1014.9 |
| 20260906061515 | 26 | 240 | 0.0 | 3.2 | 0.00 | 0.00 | 0.00 | 77 | 1014.9 |
| 20260906061011 | 27 | 211 | 0.0 | 3.2 | 0.00 | 0.00 | 0.00 | 77 | 1014.9 |
| 20260906060517 | 26 | 100 | 0.0 | 3.2 | 0.00 | 0.00 | 0.00 | 77 | 1014.9 |
| 20260906060012 | 27 | 102 | 0.0 | 3.2 | 0.00 | 0.00 | 0.00 | 77 | 1014.8 |
| 20260906055509 | 27 | 103 | 1.6 | 3.2 | 0.00 | 0.00 | 0.00 | 77 | 1014.8 |
| 20260906055016 | 27 | 100 | 0.0 | 4.8 | 0.00 | 0.00 | 0.00 | 77 | 1014.9 |
| 20260906054507 | 27 | 111 | 0.0 | 4.8 | 0.00 | 0.00 | 0.00 | 77 | 1014.9 |
| 20260906054011 | 27 | 100 | 0.0 | 4.8 | 0.00 | 0.00 | 0.00 | 76 | 1014.9 |
| 20260906053514 | 27 | 98 | 1.6 | 4.8 | 0.00 | 0.00 | 0.00 | 76 | 1014.9 |
| 20260906053007 | 27 | 100 | 0.0 | 9.7 | 0.00 | 0.00 | 0.00 | 76 | 1014.8 |
| 20260906052510 | 27 | 99 | 1.6 | 9.7 | 0.00 | 0.00 | 0.00 | 76 | 1014.7 |
| 20260906052010 | 27 | 111 | 1.6 | 9.7 | 0.00 | 0.00 | 0.00 | 76 | 1014.7 |
| 20260906051511 | 27 | 121 | 1.6 | 6.4 | 0.00 | 0.00 | 0.00 | 76 | 1014.7 |
| 20260906051010 | 27 | 109 | 1.6 | 6.4 | 0.00 | 0.00 | 0.00 | 75 | 1014.8 |
| 20260906050511 | 27 | 136 | 1.6 | 6.4 | 0.00 | 0.00 | 0.00 | 75 | 1014.9 |
| 20260906050026 | 27 | 155 | 1.6 | 4.8 | 0.00 | 0.00 | 0.00 | 75 | 1014.9 |
| 20260906045514 | 27 | 109 | 0.0 | 6.4 | 0.00 | 0.00 | 0.00 | 75 | 1014.9 |
| 20260906045009 | 27 | 102 | 1.6 | 6.4 | 0.00 | 0.00 | 0.00 | 74 | 1014.9 |
| 20260906044523 | 27 | 111 | 0.0 | 6.4 | 0.00 | 0.00 | 0.00 | 74 | 1014.9 |
| 20260906044016 | 27 | 103 | 1.6 | 6.4 | 0.00 | 0.00 | 0.00 | 75 | 1014.9 |
| 20260906043508 | 27 | 102 | 1.6 | 6.4 | 0.00 | 0.00 | 0.00 | 74 | 1014.9 |
| 20260906043028 | 27 | 71 | 1.6 | 4.8 | 0.00 | 0.00 | 0.00 | 74 | 1014.9 |
| 20260906042514 | 27 | 91 | 1.6 | 4.8 | 0.00 | 0.00 | 0.00 | 74 | 1015.0 |
| 20260906042016 | 28 | 98 | 1.6 | 4.8 | 0.00 | 0.00 | 0.00 | 74 | 1015.0 |
| 20260906041511 | 28 | 90 | 0.0 | 4.8 | 0.00 | 0.00 | 0.00 | 74 | 1014.9 |
| 20260906041016 | 28 | 76 | 1.6 | 4.8 | 0.00 | 0.00 | 0.00 | 74 | 1015.0 |
| 20260906040513 | 28 | 79 | 0.0 | 6.4 | 0.00 | 0.00 | 0.00 | 74 | 1015.0 |
| 20260906040028 | 28 | 96 | 1.6 | 6.4 | 0.00 | 0.00 | 0.00 | 73 | 1015.0 |
| 20260906035508 | 28 | 94 | 1.6 | 6.4 | 0.00 | 0.00 | 0.00 | 74 | 1015.0 |
| 20260906035014 | 28 | 96 | 1.6 | 6.4 | 0.00 | 0.00 | 0.00 | 73 | 1015.0 |
| 20260906034533 | 28 | 96 | 0.0 | 6.4 | 0.00 | 0.00 | 0.00 | 73 | 1014.9 |
| 20260906034010 | 28 | 111 | 0.0 | 6.4 | 0.00 | 0.00 | 0.00 | 73 | 1014.9 |
| 20260906033513 | 28 | 88 | 0.0 | 6.4 | 0.00 | 0.00 | 0.00 | 73 | 1014.9 |
| 20260906033025 | 28 | 88 | 1.6 | 6.4 | 0.00 | 0.00 | 0.00 | 73 | 1014.8 |
| 20260906032516 | 28 | 96 | 3.2 | 4.8 | 0.00 | 0.00 | 0.00 | 73 | 1014.7 |
| 20260906032011 | 28 | 108 | 1.6 | 4.8 | 0.00 | 0.00 | 0.00 | 73 | 1014.7 |
| 20260906031519 | 28 | 93 | 0.0 | 4.8 | 0.00 | 0.00 | 0.00 | 73 | 1014.7 |
| 20260906031016 | 28 | 102 | 0.0 | 4.8 | 0.00 | 0.00 | 0.00 | 72 | 1014.7 |
| 20260906030515 | 29 | 96 | 1.6 | 4.8 | 0.00 | 0.00 | 0.00 | 72 | 1014.7 |
| 20260906030020 | 29 | 226 | 0.0 | 6.4 | 0.00 | 0.00 | 0.00 | 72 | 1014.4 |
| 20260906025513 | 29 | 128 | 3.2 | 6.4 | 0.00 | 0.00 | 0.00 | 72 | 1014.2 |
| 20260906025016 | 29 | 87 | 0.0 | 3.2 | 0.00 | 0.00 | 0.00 | 72 | 1014.2 |
| 20260906024519 | 29 | 101 | 0.0 | 3.2 | 0.00 | 0.00 | 0.00 | 72 | 1014.2 |
| 20260906024003 | 29 | 129 | 0.0 | 3.2 | 0.00 | 0.00 | 0.00 | 72 | 1014.1 |
| 20260906023503 | 29 | 137 | 0.0 | 4.8 | 0.00 | 0.00 | 0.00 | 72 | 1014.0 |
| 20260906023002 | 29 | 121 | 0.0 | 6.4 | 0.00 | 0.00 | 0.00 | 72 | 1014.0 |
| 20260906022503 | 29 | 109 | 0.0 | 6.4 | 0.00 | 0.00 | 0.00 | 71 | 1014.1 |
| 20260906022003 | 29 | 110 | 0.0 | 4.8 | 0.00 | 0.00 | 0.00 | 71 | 1014.0 |
| 20260906021504 | 30 | 96 | 0.0 | 6.4 | 0.00 | 0.00 | 0.00 | 71 | 1013.9 |
| 20260906021002 | 29 | 102 | 1.6 | 6.4 | 0.00 | 0.00 | 0.00 | 71 | 1013.8 |
| 20260906020508 | 30 | 106 | 0.0 | 6.4 | 0.00 | 0.00 | 0.00 | 71 | 1013.8 |
| 20260906020002 | 30 | 100 | 3.2 | 6.4 | 0.00 | 0.00 | 0.00 | 70 | 1013.7 |
| 20260906015502 | 30 | 119 | 0.0 | 3.2 | 0.00 | 0.00 | 0.00 | 71 | 1013.5 |
| 20260906015003 | 30 | 109 | 0.0 | 3.2 | 0.00 | 0.00 | 0.00 | 71 | 1013.4 |
| 20260906014505 | 30 | 99 | 0.0 | 3.2 | 0.00 | 0.00 | 0.00 | 71 | 1013.4 |
| 20260906014003 | 30 | 119 | 0.0 | 6.4 | 0.00 | 0.00 | 0.00 | 70 | 1013.4 |
| 20260906013502 | 30 | 118 | 3.2 | 6.4 | 0.00 | 0.00 | 0.00 | 70 | 1013.3 |
| 20260906013005 | 30 | 107 | 1.6 | 4.8 | 0.00 | 0.00 | 0.00 | 70 | 1013.2 |
| 20260906012503 | 30 | 103 | 0.0 | 3.2 | 0.00 | 0.00 | 0.00 | 70 | 1013.2 |
| 20260906012002 | 30 | 103 | 1.6 | 3.2 | 0.00 | 0.00 | 0.00 | 70 | 1013.2 |
| 20260906011503 | 30 | 107 | 0.0 | 4.8 | 0.00 | 0.00 | 0.00 | 69 | 1013.1 |
| 20260906011004 | 30 | 68 | 0.0 | 4.8 | 0.00 | 0.00 | 0.00 | 68 | 1013.1 |
| 20260906010503 | 30 | 111 | 0.0 | 9.7 | 0.00 | 0.00 | 0.00 | 68 | 1013.0 |
| 20260906010002 | 30 | 111 | 1.6 | 9.7 | 0.00 | 0.00 | 0.00 | 68 | 1013.0 |
| 20260906005503 | 30 | 76 | 4.8 | 9.7 | 0.00 | 0.00 | 0.00 | 68 | 1012.9 |
| 20260906005003 | 31 | 103 | 0.0 | 9.7 | 0.00 | 0.00 | 0.00 | 67 | 1012.9 |
| 20260906004504 | 31 | 109 | 3.2 | 6.4 | 0.00 | 0.00 | 0.00 | 67 | 1013.0 |
| 20260906004004 | 31 | 100 | 0.0 | 11.3 | 0.00 | 0.00 | 0.00 | 67 | 1013.0 |
| 20260906003503 | 31 | 117 | 1.6 | 11.3 | 0.00 | 0.00 | 0.00 | 65 | 1012.9 |
| 20260906003002 | 31 | 67 | 3.2 | 9.7 | 0.00 | 0.00 | 0.00 | 65 | 1012.9 |
| 20260906002501 | 31 | 113 | 3.2 | 9.7 | 0.00 | 0.00 | 0.00 | 65 | 1012.8 |
| 20260906002002 | 31 | 103 | 3.2 | 9.7 | 0.00 | 0.00 | 0.00 | 65 | 1012.7 |
| 20260906001503 | 31 | 96 | 1.6 | 12.9 | 0.00 | 0.00 | 0.00 | 64 | 1012.5 |
| 20260906001003 | 31 | 112 | 3.2 | 12.9 | 0.00 | 0.00 | 0.00 | 64 | 1012.5 |
| 20260906000505 | 32 | 116 | 3.2 | 11.3 | 0.00 | 0.00 | 0.00 | 64 | 1012.5 |
| 20260906000004 | 32 | 128 | 3.2 | 11.3 | 0.00 | 0.00 | 0.00 | 64 | 1012.6 |
| 20260905235502 | 32 | 105 | 1.6 | 11.3 | 0.00 | 0.00 | 0.00 | 64 | 1012.6 |
| 20260905235004 | 32 | 146 | 1.6 | 6.4 | 0.00 | 0.00 | 0.00 | 64 | 1012.6 |
| 20260905234506 | 32 | 119 | 1.6 | 8.0 | 0.00 | 0.00 | 0.00 | 63 | 1012.7 |
| 20260905234003 | 32 | 201 | 1.6 | 8.0 | 0.00 | 0.00 | 0.00 | 62 | 1012.8 |
| 20260905233503 | 32 | 96 | 1.6 | 8.0 | 0.00 | 0.00 | 0.00 | 62 | 1012.6 |
| 20260905233005 | 32 | 84 | 1.6 | 11.3 | 0.00 | 0.00 | 0.00 | 63 | 1012.6 |
| 20260905232503 | 32 | 83 | 1.6 | 11.3 | 0.00 | 0.00 | 0.00 | 1012.7 | |
| 20260905232004 | 32 | 103 | 3.2 | 14.5 | 0.00 | 0.00 | 0.00 | 1012.7 | |
| 20260905231503 | 32 | 36 | 1.6 | 14.5 | 0.00 | 0.00 | 0.00 | 1012.6 | |
| 20260905231002 | 32 | 74 | 1.6 | 11.3 | 0.00 | 0.00 | 0.00 | 60 | 1012.7 |
| 20260905230508 | 32 | 223 | 1.6 | 6.4 | 0.00 | 0.00 | 0.00 | 60 | 1012.7 |
| 20260905230007 | 33 | 94 | 1.6 | 4.8 | 0.00 | 0.00 | 0.00 | 60 | 1012.7 |
| 20260905225504 | 33 | 117 | 1.6 | 8.0 | 0.00 | 0.00 | 0.00 | 59 | 1012.7 |
| 20260905225005 | 33 | 110 | 3.2 | 8.0 | 0.00 | 0.00 | 0.00 | 60 | 1012.7 |
| 20260905224523 | 33 | 115 | 1.6 | 9.7 | 0.00 | 0.00 | 0.00 | 59 | 1012.7 |
| 20260905224009 | 33 | 142 | 1.6 | 9.7 | 0.00 | 0.00 | 0.00 | 59 | 1012.6 |
| 20260905223511 | 33 | 137 | 1.6 | 9.7 | 0.00 | 0.00 | 0.00 | 61 | 1012.5 |
| 20260905223007 | 33 | 90 | 3.2 | 12.9 | 0.00 | 0.00 | 0.00 | 59 | 1012.5 |
| 20260905222509 | 33 | 205 | 3.2 | 12.9 | 0.00 | 0.00 | 0.00 | 58 | 1012.3 |
| 20260905222003 | 33 | 156 | 1.6 | 12.9 | 0.00 | 0.00 | 0.00 | 59 | 1012.3 |
| 20260905221501 | 33 | 212 | 1.6 | 12.9 | 0.00 | 0.00 | 0.00 | 59 | 1012.2 |
| 20260905221001 | 33 | 246 | 0.0 | 12.9 | 0.00 | 0.00 | 0.00 | 58 | 1012.2 |
| 20260905220505 | 33 | 216 | 0.0 | 9.7 | 0.00 | 0.00 | 0.00 | 58 | 1012.2 |
| 20260905220006 | 33 | 61 | 3.2 | 9.7 | 0.00 | 0.00 | 0.00 | 58 | 1012.1 |
| 20260905215506 | 33 | 103 | 3.2 | 12.9 | 0.00 | 0.00 | 0.00 | 57 | 1012.2 |
| 20260905215006 | 33 | 157 | 3.2 | 14.5 | 0.00 | 0.00 | 0.00 | 57 | 1012.3 |
| 20260905214503 | 33 | 183 | 3.2 | 14.5 | 0.00 | 0.00 | 0.00 | 57 | 1012.3 |
| 20260905214003 | 33 | 129 | 3.2 | 14.5 | 0.00 | 0.00 | 0.00 | 57 | 1012.4 |
| 20260905213507 | 33 | 144 | 4.8 | 14.5 | 0.00 | 0.00 | 0.00 | 57 | 1012.5 |
| 20260905213003 | 33 | 109 | 4.8 | 12.9 | 0.00 | 0.00 | 0.00 | 56 | 1012.5 |
| 20260905212504 | 33 | 94 | 1.6 | 11.3 | 0.00 | 0.00 | 0.00 | 57 | 1012.6 |
| 20260905212008 | 33 | 127 | 4.8 | 11.3 | 0.00 | 0.00 | 0.00 | 56 | 1012.6 |
| 20260905211517 | 33 | 32 | 1.6 | 17.7 | 0.00 | 0.00 | 0.00 | 57 | 1012.7 |
| 20260905211004 | 32 | 96 | 3.2 | 17.7 | 0.00 | 0.00 | 0.00 | 59 | 1012.9 |
| 20260905210504 | 33 | 108 | 4.8 | 16.1 | 0.00 | 0.00 | 0.00 | 59 | 1013.0 |
| 20260905210009 | 33 | 98 | 4.8 | 16.1 | 0.00 | 0.00 | 0.00 | 58 | 1013.2 |